SCP
0 0 0 0 0 0 0 0 0 0 0 0 0 0 0 0 0 0 0 0 0 0 0 0 0 0 0 0 0 0 0 0 0 0 0 0 0 0 0 0 0 0 0 0 0 0 0 0 0 0 0 0 0 0
0 0 0 0 0 0 0 0 0 0 0 0 0 0 0 0 0 0 0 0 0 0 0 0 0 0 0 0 0 0 0 0 0 0 0 0 0 0 0 0 0 0 0 0 0 0 0 0 0 0 0 0 0 0
0 0 0 0 0 0 0 0 0 0 0 0 -0 -0 -0 -0 0 0 0 0 0 0 0 0 0 0 0 0 0 0 0 0 0 0 0 0 0 0 0 0 0 0 0 0 0 0 0 0 0 0 0 0 0 0
0 0 0 0 0 0 0 0 0 0 0 0 0 0 0 0 0 0 0 0 0 0 0 0 0 0 0 0 0 0 0 0 0 0 0 0 0 0 -0 0 0 0 0 0 0 0 0 0 0 0 0 0 0 0
0 0 0 0 0 0 0 0 0 0 0 -0 0 0 0 0 0 0 0 0 0 0 0 0 -0 0 0 -0 -0 -0 -0 0 0 0 0 0 0 0 0 0 0 0 0 0 0 0 0 0 0 0 0 0 0 0
0 0 0 0 0 0 0 0 0 0 0 0 0 0 0 0 0 0 0 0 0 0 0 0 0 0 0 0 0 0 -0 0 0 0 0 0 0 0 0 0 0 0 0 0 0 0 0 0 0 0 0 -0 -0 0
0 0 0 0 0 0 0 0 -0 -0 -0 -0 0 0 -0 0 0 0 0 0 0 0 0 0 0 0 0 0 0 -0 -0 0 0 0 0 0 0 0 0 0 0 0 -0 0 0 0 0 0 0 -0 -0 0 0 0
0 0 0 0 0 0 0 -0 -0 -0 -0 -0 -0 -0 0 0 0 0 0 0 0 0 0 0 0 0 0 0 0 0 0 0 0 0 0 0 0 0 0 0 0 -0 -0 0 -0 -0 -0 -0 -0 0 0 0 -0 -0
0 0 0 0 0 0 -0 -0 -0 -0 -0 -0 -0 0 0 0 0 0 0 0 0 0 0 0 0 0 0 0 0 0 0 0 0 0 0 0 0 0 0 0 0 0 0 -0 -0 -0 -0 0 0 0 -0 -0 -0 -0
0 0 0 0 0 0 -0 -0 -0 -0 -0 -0 -0 -0 0 0 0 0 0 0 0 0 0 0 0 0 0 0 0 0 0 0 0 0 0 0 0 0 0 0 0 0 0 -0 0 0 -0 -0 -0 -0 -0 -0 -0 -0
0 0 0 -0 -0 -0 -0 -0 0 -0 -0 -0 -0 -0 0 0 0 0 0 0 0 0 0 0 0 0 0 0 0 0 0 0 0 0 0 0 0 0 0 0 0 0 -0 -0 0 0 0 -0 -0 0 0 0 -0 0
0 0 -0 -0 -0 -0 -0 -0 -0 -0 0 -0 0 0 0 0 -0 0 0 0 0 0 0 0 0 0 0 0 0 0 0 0 0 0 0 0 0 0 0 0 0 -0 0 0 0 -0 -0 -0 -0 -0 -0 -0 -0 0
0 -0 -0 -0 -0 -0 0 -0 -0 -0 -0 0 0 0 -0 0 -0 0 0 0 0 0 0 0 0 0 0 0 0 0 0 0 0 0 0 0 0 0 0 0 0 -0 0 -0 -0 -0 -0 -0 -0 -0 -0 -0 -0 0
-0 -0 -0 -0 -0 -0 -0 -0 -0 -0 -0 -0 0 0 -0 -0 0 0 0 0 0 0 0 0 0 0 0 0 0 0 0 0 0 0 0 0 0 0 0 0 -0 -0 -0 -0 0 -0 0 -0 -0 0 0 0 0 0
-0 -0 -0 -0 -0 0 -0 -0 -0 0 -0 -0 0 -0 0 0 0 0 0 0 0 0 0 0 0 0 0 0 0 0 0 0 0 0 0 0 0 0 0 0 -0 0 0 0 0 0 0 0 0 0 0 0 0 0
-0 -0 0 -0 0 -0 -0 -0 -0 -0 -0 -0 0 0 0 0 0 0 0 0 0 0 0 0 0 0 0 0 0 0 0 0 0 0 0 0 0 0 0 0 0 0 0 0 0 0 0 0 0 0 0 0 0 0
-0 0 -0 -0 -0 -0 -0 -0 -0 -0 -0 0 0 0 0 0 0 0 0 0 0 0 0 0 0 0 0 0 0 0 0 0 0 0 0 0 0 0 0 0 0 0 0 0 0 0 0 0 0 0 0 0 0 0
0 0 0 0 -0 -0 -0 0 -0 -0 0 0 0 0 -0 0 0 0 0 0 0 0 0 0 0 0 0 0 0 0 0 0 0 0 0 0 0 0 0 0 0 0 0 0 0 0 0 0 0 0 0 0 0 0
0 0 0 -0 0 0 0 0 -0 0 0 -0 0 -0 0 0 0 0 0 0 0 0 0 0 0 0 0 0 0 0 0 0 0 0 0 0 0 0 0 0 0 0 0 0 0 0 0 0 0 0 0 0 0 0
0 0 0 -0 -0 -0 0 0 -0 -0 0 0 0 0 0 0 0 0 0 0 0 0 0 0 0 0 0 0 0 0 0 0 0 0 0 0 0 0 0 0 0 0 0 0 0 -0 -0 -0 -0 0 0 0 0 0
-0 0 -0 0 -0 0 -0 0 0 0 0 0 0 0 0 0 -0 0 0 0 0 0 0 0 0 0 0 0 0 0 0 0 0 -0 -0 0 0 0 0 0 0 0 0 0 -0 -0 -0 0 0 0 0 0 0 0
0 -0 0 0 0 0 0 0 0 0 0 0 0 0 0 0 0 0 0 0 0 0 0 0 0 0 0 0 0 0 -0 -0 0 -0 -0 0 0 0 0 0 -0 -0 0 0 -0 -0 -0 0 0 0 0 0 0 0
0 -0 -0 0 0 0 0 0 0 0 0 0 0 0 0 0 0 0 0 0 0 0 0 0 0 0 0 0 0 -0 -0 -0 -0 -0 0 0 0 0 0 -0 -0 -0 -0 -0 -0 -0 0 -0 0 0 0 0 0 0
-0 0 -0 0 0 0 0 0 0 0 0 0 0 0 0 0 0 0 0 0 0 0 0 0 0 0 -0 -0 -0 0 0 -0 -0 -0 0 0 -0 0 0 -0 -0 -0 0 0 0 0 0 0 0 0 0 0 0 0
-0 0 0 -0 0 0 0 0 0 0 0 0 0 0 0 0 0 0 0 0 0 0 0 -0 -0 -0 0 0 0 0 -0 0 0 0 0 -0 -0 0 -0 -0 0 0 0 0 0 0 0 0 0 0 0 0 0 0
0 -0 0 0 0 0 0 0 0 0 0 0 0 0 0 0 0 0 0 0 -0 -0 0 0 0 -0 -0 -0 -0 -0 -0 0 -0 0 0 -0 -0 -0 -0 -0 -0 0 0 0 0 0 0 0 0 0 0 0 0 0
0 -0 -0 0 0 0 0 0 0 0 0 0 0 0 0 0 0 0 0 0 0 0 -0 0 0 0 -0 -0 0 0 0 0 -0 0 0 0 0 -0 0 0 0 0 0 0 0 0 0 0 0 0 0 0 0 0
0 -0 0 -0 0 0 0 0 0 0 0 0 0 0 0 0 0 0 0 0 0 0 0 0 -0 -0 -0 -0 -0 -0 -0 -0 0 0 0 0 0 0 0 0 -0 -0 -0 0 0 0 0 0 0 0 0 0 0 0
0 -0 -0 -0 -0 0 0 0 0 0 -0 -0 0 0 0 -0 0 0 0 0 0 0 0 -0 -0 -0 -0 -0 0 -0 -0 -0 -0 0 0 0 0 0 0 0 0 0 0 0 0 0 0 0 0 0 0 0 0 0
0 -0 0 -0 0 -0 0 0 0 0 -0 -0 -0 0 0 0 0 -0 0 0 0 0 0 0 -0 -0 -0 -0 0 0 0 0 0 0 -0 -0 -0 0 0 0 0 0 0 0 0 0 0 0 0 0 0 0 0 0
0 -0 -0 -0 -0 0 0 0 0 0 0 0 0 -0 0 0 0 -0 -0 -0 -0 0 0 0 0 0 0 0 0 0 0 0 0 0 -0 -0 0 -0 -0 -0 -0 0 0 0 0 0 0 0 0 -0 -0 -0 0 0
0 0 0 0 0 0 -0 -0 0 0 0 0 0 0 0 0 0 0 -0 -0 0 0 0 0 0 0 -0 0 0 0 0 0 -0 -0 0 0 -0 -0 -0 -0 -0 -0 -0 -0 0 0 0 0 -0 0 0 0 0 0
0 0 0 0 0 0 0 0 0 0 0 0 0 0 -0 0 0 0 -0 -0 -0 -0 -0 -0 0 0 0 0 0 0 0 0 -0 0 0 0 0 -0 -0 -0 -0 0 0 -0 -0 -0 -0 -0 0 0 0 0 0 0
Wind_Speed_500mb
30 29 32 34 38 40 41 41 41 41 40 38 37 34 28 23 24 25 31 19 20 18 46 51 24 39 25 19 7 19 21 4 6 2 3 6 6 5 7 7 9 13 7 6 4 9 19 8 6 22 16 16 62 53
25 28 32 35 36 37 37 37 38 38 37 35 34 32 28 24 22 28 35 35 37 37 61 67 73 66 65 64 57 24 16 12 9 3 4 5 6 7 5 6 13 5 4 7 11 10 11 25 21 30 24 52 51 68
24 28 30 32 33 34 34 36 38 36 33 30 30 33 28 24 26 26 36 41 38 33 59 29 48 29 15 23 23 19 23 32 18 25 9 5 8 3 5 5 10 6 12 6 10 8 9 21 9 14 30 52 63 63
24 26 27 29 31 32 33 34 35 31 29 29 30 32 31 30 30 33 38 39 34 24 13 21 55 72 34 17 29 50 65 52 40 29 9 5 6 6 6 7 6 11 11 7 10 12 7 25 29 45 60 57 49 51
21 23 25 28 31 33 32 32 31 30 28 30 35 36 36 37 37 38 39 19 5 10 11 35 54 31 17 24 32 33 41 62 47 11 6 5 6 5 8 4 9 16 10 8 8 8 5 15 29 48 58 46 22 31
19 21 26 28 30 32 33 31 30 31 33 36 39 41 38 37 40 39 10 3 13 20 16 8 29 23 39 30 26 15 11 27 33 15 13 11 13 6 4 6 14 4 6 13 2 3 28 42 36 33 30 42 45 31
17 21 26 29 30 32 34 35 35 34 36 39 42 38 37 32 27 17 9 21 31 33 12 13 14 14 30 35 19 8 4 11 15 9 10 10 11 17 5 7 14 11 12 34 26 36 40 44 36 31 32 35 34 33
19 23 27 30 29 30 34 35 33 36 38 38 37 37 28 8 21 10 20 25 17 13 10 6 10 18 19 13 12 12 1 6 11 8 7 9 7 5 7 16 26 15 20 45 40 40 43 39 26 42 33 29 32 32
19 25 28 29 30 29 31 34 34 39 38 35 35 27 9 8 16 25 38 27 13 10 6 6 6 7 18 11 12 8 5 3 4 6 5 11 3 6 11 27 10 14 17 22 29 10 26 41 38 34 31 32 31 24
22 26 27 30 31 30 30 32 36 39 40 36 22 10 7 22 38 22 8 8 3 4 7 9 11 6 13 18 7 7 6 2 3 4 8 5 2 13 17 14 25 13 11 25 48 49 51 48 43 35 31 24 20 19
20 24 26 30 32 32 30 34 39 41 38 34 19 9 24 22 13 10 9 9 7 7 8 12 15 19 24 6 5 5 5 4 5 4 5 5 3 13 16 28 7 16 32 49 46 44 39 36 39 37 33 26 24 22
18 22 25 28 30 30 30 34 39 38 34 25 21 15 20 13 8 7 5 6 3 5 10 12 28 28 17 9 7 8 5 5 6 20 6 7 10 26 16 18 31 46 57 44 41 46 48 56 56 47 40 32 30 24
19 18 21 28 32 33 31 33 34 36 24 12 13 10 12 14 12 10 9 6 7 10 15 30 22 10 12 7 7 5 6 5 12 7 5 5 25 25 15 24 43 44 43 46 49 51 51 49 41 35 31 25 26 29
19 16 19 30 33 32 28 27 30 28 13 10 12 13 6 8 5 8 9 13 27 28 54 50 16 7 9 6 6 6 5 6 7 7 8 6 27 27 22 36 37 42 42 43 40 38 31 29 27 20 17 19 20 19
16 15 19 28 28 28 22 22 22 20 11 10 8 6 5 16 33 41 40 28 42 41 39 19 11 7 5 5 6 6 6 9 9 5 6 22 9 15 16 30 34 34 31 27 21 19 15 15 10 9 7 9 14 15
16 17 22 27 26 23 18 16 14 13 8 11 7 8 26 19 27 32 42 42 49 43 22 5 6 7 7 6 8 11 7 12 5 11 35 17 1 7 23 24 25 24 19 11 4 5 6 8 11 7 5 7 10 15
16 19 24 28 23 13 18 12 10 10 9 10 10 34 22 17 22 36 38 45 43 19 6 8 9 8 12 7 8 8 7 5 33 34 30 16 14 13 11 13 13 11 8 4 11 12 7 11 15 9 10 5 13 15
19 19 20 29 22 7 15 15 8 8 6 7 21 42 29 28 27 40 52 52 30 20 10 9 11 10 8 8 6 8 13 29 40 22 19 28 14 11 10 14 12 10 6 6 8 12 11 18 13 12 9 3 6 14
18 15 20 19 19 14 8 9 10 10 6 19 23 35 32 26 29 32 47 51 39 26 8 10 9 6 5 5 20 33 45 41 36 35 35 21 14 23 16 9 6 6 8 11 14 13 15 18 22 8 12 4 4 16
13 19 13 11 15 8 6 5 9 7 8 16 23 32 18 29 29 36 45 51 37 19 21 11 7 18 19 30 19 16 14 10 18 39 49 46 35 24 19 16 20 19 17 20 20 13 7 9 24 10 4 8 11 18
14 14 9 9 9 11 5 6 6 7 11 12 23 23 9 12 33 39 44 42 26 14 11 29 44 42 37 30 25 19 6 16 27 31 35 35 20 24 45 37 28 21 18 16 15 26 18 17 15 8 14 8 14 12
16 12 8 10 7 6 4 4 10 18 8 15 18 17 7 11 12 13 24 30 17 21 41 47 48 51 46 40 34 40 41 40 39 28 24 26 38 40 35 29 28 27 27 24 28 33 31 28 14 14 7 8 11 5
9 7 7 9 5 4 2 10 5 7 4 13 15 6 8 9 12 15 10 18 15 38 48 57 55 54 50 38 36 36 34 38 45 44 40 44 44 43 41 39 35 32 37 34 24 24 24 15 3 8 16 10 8 6
7 5 5 6 5 7 9 6 6 7 7 7 5 6 8 11 9 9 7 16 30 35 45 55 59 56 51 46 43 37 34 34 32 36 35 36 39 40 36 34 31 31 34 31 24 20 17 14 16 12 11 13 10 11
4 3 3 3 2 5 7 12 8 7 4 7 1 3 7 9 5 5 2 15 28 32 33 39 48 47 51 51 47 40 30 21 25 29 28 24 24 23 23 22 20 21 21 21 26 26 25 26 20 9 7 11 10 7
5 2 1 8 5 4 5 5 6 6 5 5 5 6 5 5 5 3 4 18 15 23 27 32 35 34 38 35 35 43 32 22 21 22 22 25 29 33 35 33 26 17 15 18 18 23 27 31 27 5 12 8 11 15
5 4 3 4 5 5 4 5 7 4 5 5 8 9 6 5 2 1 0 9 16 18 17 18 21 22 23 24 24 26 28 31 32 24 21 27 34 39 39 33 31 27 22 19 14 14 17 22 21 7 2 3 5 4
2 5 5 4 5 4 3 5 5 4 5 9 6 6 4 10 8 4 1 4 8 12 9 9 9 14 18 18 17 22 28 35 36 30 24 32 39 38 33 29 27 26 23 21 19 13 8 7 11 14 16 15 11 4
1 6 8 4 3 1 3 2 1 2 6 8 2 1 1 2 2 5 3 6 5 4 6 6 10 14 17 13 21 26 30 35 44 48 52 53 52 46 43 39 36 29 23 16 10 12 6 6 11 14 14 16 10 13
1 8 4 2 2 2 2 2 4 5 7 5 4 2 3 6 5 7 12 14 13 11 9 9 12 16 18 18 23 28 31 38 46 48 50 48 41 39 40 41 39 28 21 18 15 7 3 1 6 10 13 16 13 13
5 0 3 3 5 3 6 7 8 9 8 5 5 4 4 5 9 9 8 5 7 9 13 5 2 8 14 19 20 25 29 36 39 45 44 40 35 36 38 41 40 30 18 15 13 10 5 10 13 17 23 26 22 20
5 6 2 4 5 6 6 4 3 3 4 4 4 7 5 6 6 4 7 3 4 5 9 11 16 20 25 23 24 26 28 34 37 38 38 35 37 40 41 40 36 30 29 23 19 16 17 18 20 23 22 17 7 7
4 6 8 6 6 5 6 4 4 3 6 5 5 8 9 5 4 4 2 3 8 13 15 21 25 15 16 14 18 25 29 27 29 30 30 35 39 43 42 39 35 34 32 29 26 23 20 18 16 10 7 7 2 6
Wind_Direction_500mb
323 328 331 333 333 333 334 335 337 339 339 339 338 335 332 331 320 315 315 330 321 285 289 285 293 265 276 275 281 304 333 290 324 275 247 268 255 274 296 267 202 199 184 206 101 206 254 263 246 204 221 158 170 175
326 331 332 333 334 337 341 343 344 343 343 344 345 344 338 323 318 310 304 319 315 291 279 291 290 280 270 270 262 245 235 283 287 352 13 344 330 317 313 264 340 288 213 209 185 216 283 315 284 293 202 167 161 156
330 331 334 338 343 344 347 349 348 345 347 353 354 350 342 329 322 314 311 319 319 302 307 296 298 312 291 270 280 228 241 237 225 255 247 212 242 281 326 293 325 350 19 296 347 347 -0 10 28 194 164 158 153 147
330 335 342 346 347 348 348 348 351 354 354 351 346 338 335 331 325 318 314 313 302 291 276 294 310 307 313 283 264 251 257 253 259 265 238 222 232 221 241 251 210 228 325 299 284 267 206 57 85 117 123 125 128 132
334 343 348 350 352 352 350 348 345 342 340 339 339 338 333 330 327 323 315 327 327 295 295 293 318 337 354 334 320 301 253 239 238 216 215 210 242 193 245 265 245 189 212 233 232 274 286 116 98 103 108 112 122 141
345 351 355 352 350 350 349 344 340 340 337 337 335 330 327 324 323 332 344 3 331 316 318 304 310 321 352 339 332 313 255 213 221 188 212 219 225 176 265 255 261 178 263 255 265 161 146 128 101 110 109 127 143 144
353 350 345 345 347 347 346 342 338 334 334 330 326 325 325 324 323 324 312 305 306 311 299 293 283 279 313 324 322 357 193 196 205 212 225 227 214 179 233 238 275 265 118 128 87 98 90 142 160 156 156 143 128 128
354 347 346 348 344 343 348 353 349 341 333 328 325 323 323 339 351 332 334 332 305 294 275 289 281 314 336 318 313 344 269 216 204 207 229 208 161 210 243 254 279 272 144 135 136 132 127 131 136 127 123 121 123 122
357 357 356 353 349 347 348 348 342 339 334 332 326 323 332 331 348 326 321 313 303 258 280 278 294 302 311 313 295 297 309 280 240 223 245 163 160 217 256 291 155 283 156 160 182 172 142 134 118 119 119 122 119 111
5 359 359 2 0 357 351 344 340 345 345 342 339 346 352 335 322 332 341 326 286 272 259 263 266 276 295 322 292 291 249 273 276 241 187 181 140 298 35 119 136 131 117 148 129 117 117 114 115 109 100 92 91 87
4 4 5 6 5 0 351 342 348 353 351 357 348 347 337 339 354 355 336 358 325 276 253 261 274 297 307 270 296 278 317 320 298 21 339 46 41 9 79 113 121 147 154 141 130 125 117 112 103 93 90 92 94 90
356 0 5 4 360 352 349 348 350 350 347 334 337 333 348 357 0 354 317 327 344 285 290 286 312 316 296 295 288 315 323 335 5 330 46 17 345 59 85 40 106 134 134 120 115 113 106 101 97 96 94 97 97 91
347 343 354 358 353 344 346 348 349 343 346 351 2 352 358 1 13 3 329 312 316 293 280 311 316 301 306 299 299 339 329 12 319 27 32 6 327 360 72 117 123 119 119 118 121 119 113 114 108 100 107 120 112 87
331 329 336 344 344 342 346 347 350 1 8 12 7 2 62 341 295 243 269 269 286 278 302 303 296 304 301 300 338 323 345 299 47 42 12 333 8 49 111 117 112 121 122 124 122 123 124 123 120 116 107 88 73 77
339 335 329 339 344 343 349 350 358 12 15 26 7 351 277 288 289 301 310 298 319 319 313 298 307 262 286 308 5 322 22 45 30 24 313 354 359 54 103 118 119 120 123 124 124 131 145 115 101 111 74 43 30 33
349 342 343 347 349 346 356 355 7 25 19 15 357 303 312 310 317 334 341 332 339 330 327 330 341 331 16 359 19 7 23 30 29 324 343 354 305 184 139 122 126 113 107 116 73 45 52 16 37 65 30 17 351 1
346 343 347 351 355 357 360 8 24 20 7 352 321 348 344 349 329 346 349 350 349 350 1 11 35 4 306 12 35 13 18 300 330 16 35 55 83 93 132 139 109 141 163 41 46 7 11 13 20 4 -0 26 29 349
340 344 346 346 355 346 21 28 26 7 351 325 340 356 25 18 7 12 9 11 16 7 14 18 352 21 36 17 355 335 349 38 61 78 23 38 81 117 101 98 134 106 91 28 17 21 45 39 19 5 3 5 16 12
354 356 346 352 1 13 17 32 12 353 327 327 352 18 19 28 19 359 18 19 21 29 60 32 48 10 6 349 34 39 30 27 33 62 78 99 74 87 84 61 79 91 52 20 22 27 31 19 2 345 350 206 328 18
359 347 350 8 9 25 26 28 355 336 330 321 334 9 33 37 30 12 18 30 27 28 33 33 12 343 336 332 311 306 337 33 70 60 51 51 49 43 57 67 92 91 81 80 66 55 52 1 358 23 91 129 20 15
358 14 27 24 32 36 27 357 347 348 322 311 339 -0 356 19 40 24 8 24 35 35 31 15 19 45 52 49 74 62 49 57 49 46 55 43 70 62 57 62 71 71 44 20 21 15 0 6 334 165 164 131 35 22
12 18 41 37 27 354 338 339 304 309 283 295 326 340 356 2 15 15 357 24 22 359 9 20 40 56 62 66 71 78 76 75 74 73 83 77 68 72 74 49 49 47 38 26 36 41 29 25 48 137 153 335 12 35
13 42 48 22 348 333 27 332 314 324 297 326 352 30 358 19 18 24 56 12 3 20 36 40 55 63 75 82 86 75 68 69 73 74 73 76 76 73 69 63 58 55 45 43 41 16 27 28 17 313 305 314 21 334
32 62 39 5 333 323 328 317 317 309 309 3 46 356 15 11 19 57 15 353 9 34 46 45 50 64 65 70 77 71 70 81 81 78 73 73 72 65 58 52 50 53 52 45 33 14 358 343 343 326 280 305 297 319
54 67 36 337 317 324 345 349 343 14 353 354 67 25 347 359 73 64 359 348 11 39 52 54 51 52 54 55 62 72 69 56 66 66 59 42 34 27 26 27 31 26 24 27 28 19 5 351 330 320 173 230 282 285
72 64 25 1 11 32 344 343 342 330 322 6 12 1 0 53 60 43 352 349 356 25 29 34 39 53 54 51 49 50 55 45 32 32 27 11 6 3 357 353 350 340 350 4 358 357 352 354 350 249 202 218 268 283
39 1 61 25 347 340 315 311 304 326 26 24 339 360 52 68 85 82 42 6 15 26 29 36 59 58 50 44 35 31 28 26 22 11 3 359 359 355 353 350 344 336 324 314 317 341 354 359 17 5 328 300 292 316
31 38 10 331 332 349 337 336 0 34 8 346 326 28 138 181 213 154 144 29 6 358 354 5 40 29 7 2 354 344 355 3 3 8 358 360 3 -0 1 2 351 335 323 311 294 275 298 333 325 337 332 318 299 169
317 338 327 228 297 305 4 356 292 353 351 343 9 345 133 130 123 181 270 298 305 322 1 33 21 11 10 357 359 4 0 359 360 2 3 360 358 4 4 359 355 354 354 350 314 260 268 328 329 326 348 343 296 215
28 355 353 348 303 246 230 313 269 304 323 329 310 274 240 211 245 307 314 294 280 287 314 331 2 12 12 3 348 347 353 357 359 0 359 0 2 359 356 355 357 359 5 9 13 34 45 294 333 332 326 327 318 251
325 168 277 287 276 268 314 301 279 288 279 287 264 271 261 259 268 276 332 20 16 9 343 306 297 350 335 338 338 335 338 345 349 352 356 2 3 1 2 2 360 359 353 350 357 1 324 310 316 320 324 311 296 294
193 201 164 286 279 280 278 258 275 263 246 240 244 230 233 252 275 278 342 276 308 338 348 335 313 321 327 339 329 330 330 337 345 351 355 2 6 8 6 2 4 6 4 357 341 313 307 315 323 332 352 360 356 290
208 225 242 258 269 273 211 242 248 238 222 233 245 241 246 242 264 216 132 357 306 309 327 331 340 328 324 323 328 328 330 339 351 351 350 353 359 2 2 4 9 10 10 6 2 356 341 317 304 312 336 354 19 271
Wind_Speed_850mb
30 29 32 34 38 40 41 41 41 41 40 38 37 34 28 23 24 25 31 19 20 18 46 51 24 39 25 19 7 19 21 4 6 2 3 6 6 5 7 7 9 13 7 6 4 9 19 8 6 22 16 16 62 53
25 28 32 35 36 37 37 37 38 38 37 35 34 32 28 24 22 28 35 35 37 37 61 67 73 66 65 64 57 24 16 12 9 3 4 5 6 7 5 6 13 5 4 7 11 10 11 25 21 30 24 52 51 68
24 28 30 32 33 34 34 36 38 36 33 30 30 33 28 24 26 26 36 41 38 33 59 29 48 29 15 23 23 19 23 32 18 25 9 5 8 3 5 5 10 6 12 6 10 8 9 21 9 14 30 52 63 63
24 26 27 29 31 32 33 34 35 31 29 29 30 32 31 30 30 33 38 39 34 24 13 21 55 72 34 17 29 50 65 52 40 29 9 5 6 6 6 7 6 11 11 7 10 12 7 25 29 45 60 57 49 51
21 23 25 28 31 33 32 32 31 30 28 30 35 36 36 37 37 38 39 19 5 10 11 35 54 31 17 24 32 33 41 62 47 11 6 5 6 5 8 4 9 16 10 8 8 8 5 15 29 48 58 46 22 31
19 21 26 28 30 32 33 31 30 31 33 36 39 41 38 37 40 39 10 3 13 20 16 8 29 23 39 30 26 15 11 27 33 15 13 11 13 6 4 6 14 4 6 13 2 3 28 42 36 33 30 42 45 31
17 21 26 29 30 32 34 35 35 34 36 39 42 38 37 32 27 17 9 21 31 33 12 13 14 14 30 35 19 8 4 11 15 9 10 10 11 17 5 7 14 11 12 34 26 36 40 44 36 31 32 35 34 33
19 23 27 30 29 30 34 35 33 36 38 38 37 37 28 8 21 10 20 25 17 13 10 6 10 18 19 13 12 12 1 6 11 8 7 9 7 5 7 16 26 15 20 45 40 40 43 39 26 42 33 29 32 32
19 25 28 29 30 29 31 34 34 39 38 35 35 27 9 8 16 25 38 27 13 10 6 6 6 7 18 11 12 8 5 3 4 6 5 11 3 6 11 27 10 14 17 22 29 10 26 41 38 34 31 32 31 24
22 26 27 30 31 30 30 32 36 39 40 36 22 10 7 22 38 22 8 8 3 4 7 9 11 6 13 18 7 7 6 2 3 4 8 5 2 13 17 14 25 13 11 25 48 49 51 48 43 35 31 24 20 19
20 24 26 30 32 32 30 34 39 41 38 34 19 9 24 22 13 10 9 9 7 7 8 12 15 19 24 6 5 5 5 4 5 4 5 5 3 13 16 28 7 16 32 49 46 44 39 36 39 37 33 26 24 22
18 22 25 28 30 30 30 34 39 38 34 25 21 15 20 13 8 7 5 6 3 5 10 12 28 28 17 9 7 8 5 5 6 20 6 7 10 26 16 18 31 46 57 44 41 46 48 56 56 47 40 32 30 24
19 18 21 28 32 33 31 33 34 36 24 12 13 10 12 14 12 10 9 6 7 10 15 30 22 10 12 7 7 5 6 5 12 7 5 5 25 25 15 24 43 44 43 46 49 51 51 49 41 35 31 25 26 29
19 16 19 30 33 32 28 27 30 28 13 10 12 13 6 8 5 8 9 13 27 28 54 50 16 7 9 6 6 6 5 6 7 7 8 6 27 27 22 36 37 42 42 43 40 38 31 29 27 20 17 19 20 19
16 15 19 28 28 28 22 22 22 20 11 10 8 6 5 16 33 41 40 28 42 41 39 19 11 7 5 5 6 6 6 9 9 5 6 22 9 15 16 30 34 34 31 27 21 19 15 15 10 9 7 9 14 15
16 17 22 27 26 23 18 16 14 13 8 11 7 8 26 19 27 32 42 42 49 43 22 5 6 7 7 6 8 11 7 12 5 11 35 17 1 7 23 24 25 24 19 11 4 5 6 8 11 7 5 7 10 15
16 19 24 28 23 13 18 12 10 10 9 10 10 34 22 17 22 36 38 45 43 19 6 8 9 8 12 7 8 8 7 5 33 34 30 16 14 13 11 13 13 11 8 4 11 12 7 11 15 9 10 5 13 15
19 19 20 29 22 7 15 15 8 8 6 7 21 42 29 28 27 40 52 52 30 20 10 9 11 10 8 8 6 8 13 29 40 22 19 28 14 11 10 14 12 10 6 6 8 12 11 18 13 12 9 3 6 14
18 15 20 19 19 14 8 9 10 10 6 19 23 35 32 26 29 32 47 51 39 26 8 10 9 6 5 5 20 33 45 41 36 35 35 21 14 23 16 9 6 6 8 11 14 13 15 18 22 8 12 4 4 16
13 19 13 11 15 8 6 5 9 7 8 16 23 32 18 29 29 36 45 51 37 19 21 11 7 18 19 30 19 16 14 10 18 39 49 46 35 24 19 16 20 19 17 20 20 13 7 9 24 10 4 8 11 18
14 14 9 9 9 11 5 6 6 7 11 12 23 23 9 12 33 39 44 42 26 14 11 29 44 42 37 30 25 19 6 16 27 31 35 35 20 24 45 37 28 21 18 16 15 26 18 17 15 8 14 8 14 12
16 12 8 10 7 6 4 4 10 18 8 15 18 17 7 11 12 13 24 30 17 21 41 47 48 51 46 40 34 40 41 40 39 28 24 26 38 40 35 29 28 27 27 24 28 33 31 28 14 14 7 8 11 5
9 7 7 9 5 4 2 10 5 7 4 13 15 6 8 9 12 15 10 18 15 38 48 57 55 54 50 38 36 36 34 38 45 44 40 44 44 43 41 39 35 32 37 34 24 24 24 15 3 8 16 10 8 6
7 5 5 6 5 7 9 6 6 7 7 7 5 6 8 11 9 9 7 16 30 35 45 55 59 56 51 46 43 37 34 34 32 36 35 36 39 40 36 34 31 31 34 31 24 20 17 14 16 12 11 13 10 11
4 3 3 3 2 5 7 12 8 7 4 7 1 3 7 9 5 5 2 15 28 32 33 39 48 47 51 51 47 40 30 21 25 29 28 24 24 23 23 22 20 21 21 21 26 26 25 26 20 9 7 11 10 7
5 2 1 8 5 4 5 5 6 6 5 5 5 6 5 5 5 3 4 18 15 23 27 32 35 34 38 35 35 43 32 22 21 22 22 25 29 33 35 33 26 17 15 18 18 23 27 31 27 5 12 8 11 15
5 4 3 4 5 5 4 5 7 4 5 5 8 9 6 5 2 1 0 9 16 18 17 18 21 22 23 24 24 26 28 31 32 24 21 27 34 39 39 33 31 27 22 19 14 14 17 22 21 7 2 3 5 4
2 5 5 4 5 4 3 5 5 4 5 9 6 6 4 10 8 4 1 4 8 12 9 9 9 14 18 18 17 22 28 35 36 30 24 32 39 38 33 29 27 26 23 21 19 13 8 7 11 14 16 15 11 4
1 6 8 4 3 1 3 2 1 2 6 8 2 1 1 2 2 5 3 6 5 4 6 6 10 14 17 13 21 26 30 35 44 48 52 53 52 46 43 39 36 29 23 16 10 12 6 6 11 14 14 16 10 13
1 8 4 2 2 2 2 2 4 5 7 5 4 2 3 6 5 7 12 14 13 11 9 9 12 16 18 18 23 28 31 38 46 48 50 48 41 39 40 41 39 28 21 18 15 7 3 1 6 10 13 16 13 13
5 0 3 3 5 3 6 7 8 9 8 5 5 4 4 5 9 9 8 5 7 9 13 5 2 8 14 19 20 25 29 36 39 45 44 40 35 36 38 41 40 30 18 15 13 10 5 10 13 17 23 26 22 20
5 6 2 4 5 6 6 4 3 3 4 4 4 7 5 6 6 4 7 3 4 5 9 11 16 20 25 23 24 26 28 34 37 38 38 35 37 40 41 40 36 30 29 23 19 16 17 18 20 23 22 17 7 7
4 6 8 6 6 5 6 4 4 3 6 5 5 8 9 5 4 4 2 3 8 13 15 21 25 15 16 14 18 25 29 27 29 30 30 35 39 43 42 39 35 34 32 29 26 23 20 18 16 10 7 7 2 6
Wind_Direction_850mb
323 328 331 333 333 333 334 335 337 339 339 339 338 335 332 331 320 315 315 330 321 285 289 285 293 265 276 275 281 304 333 290 324 275 247 268 255 274 296 267 202 199 184 206 101 206 254 263 246 204 221 158 170 175
326 331 332 333 334 337 341 343 344 343 343 344 345 344 338 323 318 310 304 319 315 291 279 291 290 280 270 270 262 245 235 283 287 352 13 344 330 317 313 264 340 288 213 209 185 216 283 315 284 293 202 167 161 156
330 331 334 338 343 344 347 349 348 345 347 353 354 350 342 329 322 314 311 319 319 302 307 296 298 312 291 270 280 228 241 237 225 255 247 212 242 281 326 293 325 350 19 296 347 347 -0 10 28 194 164 158 153 147
330 335 342 346 347 348 348 348 351 354 354 351 346 338 335 331 325 318 314 313 302 291 276 294 310 307 313 283 264 251 257 253 259 265 238 222 232 221 241 251 210 228 325 299 284 267 206 57 85 117 123 125 128 132
334 343 348 350 352 352 350 348 345 342 340 339 339 338 333 330 327 323 315 327 327 295 295 293 318 337 354 334 320 301 253 239 238 216 215 210 242 193 245 265 245 189 212 233 232 274 286 116 98 103 108 112 122 141
345 351 355 352 350 350 349 344 340 340 337 337 335 330 327 324 323 332 344 3 331 316 318 304 310 321 352 339 332 313 255 213 221 188 212 219 225 176 265 255 261 178 263 255 265 161 146 128 101 110 109 127 143 144
353 350 345 345 347 347 346 342 338 334 334 330 326 325 325 324 323 324 312 305 306 311 299 293 283 279 313 324 322 357 193 196 205 212 225 227 214 179 233 238 275 265 118 128 87 98 90 142 160 156 156 143 128 128
354 347 346 348 344 343 348 353 349 341 333 328 325 323 323 339 351 332 334 332 305 294 275 289 281 314 336 318 313 344 269 216 204 207 229 208 161 210 243 254 279 272 144 135 136 132 127 131 136 127 123 121 123 122
357 357 356 353 349 347 348 348 342 339 334 332 326 323 332 331 348 326 321 313 303 258 280 278 294 302 311 313 295 297 309 280 240 223 245 163 160 217 256 291 155 283 156 160 182 172 142 134 118 119 119 122 119 111
5 359 359 2 0 357 351 344 340 345 345 342 339 346 352 335 322 332 341 326 286 272 259 263 266 276 295 322 292 291 249 273 276 241 187 181 140 298 35 119 136 131 117 148 129 117 117 114 115 109 100 92 91 87
4 4 5 6 5 0 351 342 348 353 351 357 348 347 337 339 354 355 336 358 325 276 253 261 274 297 307 270 296 278 317 320 298 21 339 46 41 9 79 113 121 147 154 141 130 125 117 112 103 93 90 92 94 90
356 0 5 4 360 352 349 348 350 350 347 334 337 333 348 357 0 354 317 327 344 285 290 286 312 316 296 295 288 315 323 335 5 330 46 17 345 59 85 40 106 134 134 120 115 113 106 101 97 96 94 97 97 91
347 343 354 358 353 344 346 348 349 343 346 351 2 352 358 1 13 3 329 312 316 293 280 311 316 301 306 299 299 339 329 12 319 27 32 6 327 360 72 117 123 119 119 118 121 119 113 114 108 100 107 120 112 87
331 329 336 344 344 342 346 347 350 1 8 12 7 2 62 341 295 243 269 269 286 278 302 303 296 304 301 300 338 323 345 299 47 42 12 333 8 49 111 117 112 121 122 124 122 123 124 123 120 116 107 88 73 77
339 335 329 339 344 343 349 350 358 12 15 26 7 351 277 288 289 301 310 298 319 319 313 298 307 262 286 308 5 322 22 45 30 24 313 354 359 54 103 118 119 120 123 124 124 131 145 115 101 111 74 43 30 33
349 342 343 347 349 346 356 355 7 25 19 15 357 303 312 310 317 334 341 332 339 330 327 330 341 331 16 359 19 7 23 30 29 324 343 354 305 184 139 122 126 113 107 116 73 45 52 16 37 65 30 17 351 1
346 343 347 351 355 357 360 8 24 20 7 352 321 348 344 349 329 346 349 350 349 350 1 11 35 4 306 12 35 13 18 300 330 16 35 55 83 93 132 139 109 141 163 41 46 7 11 13 20 4 -0 26 29 349
340 344 346 346 355 346 21 28 26 7 351 325 340 356 25 18 7 12 9 11 16 7 14 18 352 21 36 17 355 335 349 38 61 78 23 38 81 117 101 98 134 106 91 28 17 21 45 39 19 5 3 5 16 12
354 356 346 352 1 13 17 32 12 353 327 327 352 18 19 28 19 359 18 19 21 29 60 32 48 10 6 349 34 39 30 27 33 62 78 99 74 87 84 61 79 91 52 20 22 27 31 19 2 345 350 206 328 18
359 347 350 8 9 25 26 28 355 336 330 321 334 9 33 37 30 12 18 30 27 28 33 33 12 343 336 332 311 306 337 33 70 60 51 51 49 43 57 67 92 91 81 80 66 55 52 1 358 23 91 129 20 15
358 14 27 24 32 36 27 357 347 348 322 311 339 -0 356 19 40 24 8 24 35 35 31 15 19 45 52 49 74 62 49 57 49 46 55 43 70 62 57 62 71 71 44 20 21 15 0 6 334 165 164 131 35 22
12 18 41 37 27 354 338 339 304 309 283 295 326 340 356 2 15 15 357 24 22 359 9 20 40 56 62 66 71 78 76 75 74 73 83 77 68 72 74 49 49 47 38 26 36 41 29 25 48 137 153 335 12 35
13 42 48 22 348 333 27 332 314 324 297 326 352 30 358 19 18 24 56 12 3 20 36 40 55 63 75 82 86 75 68 69 73 74 73 76 76 73 69 63 58 55 45 43 41 16 27 28 17 313 305 314 21 334
32 62 39 5 333 323 328 317 317 309 309 3 46 356 15 11 19 57 15 353 9 34 46 45 50 64 65 70 77 71 70 81 81 78 73 73 72 65 58 52 50 53 52 45 33 14 358 343 343 326 280 305 297 319
54 67 36 337 317 324 345 349 343 14 353 354 67 25 347 359 73 64 359 348 11 39 52 54 51 52 54 55 62 72 69 56 66 66 59 42 34 27 26 27 31 26 24 27 28 19 5 351 330 320 173 230 282 285
72 64 25 1 11 32 344 343 342 330 322 6 12 1 0 53 60 43 352 349 356 25 29 34 39 53 54 51 49 50 55 45 32 32 27 11 6 3 357 353 350 340 350 4 358 357 352 354 350 249 202 218 268 283
39 1 61 25 347 340 315 311 304 326 26 24 339 360 52 68 85 82 42 6 15 26 29 36 59 58 50 44 35 31 28 26 22 11 3 359 359 355 353 350 344 336 324 314 317 341 354 359 17 5 328 300 292 316
31 38 10 331 332 349 337 336 0 34 8 346 326 28 138 181 213 154 144 29 6 358 354 5 40 29 7 2 354 344 355 3 3 8 358 360 3 -0 1 2 351 335 323 311 294 275 298 333 325 337 332 318 299 169
317 338 327 228 297 305 4 356 292 353 351 343 9 345 133 130 123 181 270 298 305 322 1 33 21 11 10 357 359 4 0 359 360 2 3 360 358 4 4 359 355 354 354 350 314 260 268 328 329 326 348 343 296 215
28 355 353 348 303 246 230 313 269 304 323 329 310 274 240 211 245 307 314 294 280 287 314 331 2 12 12 3 348 347 353 357 359 0 359 0 2 359 356 355 357 359 5 9 13 34 45 294 333 332 326 327 318 251
325 168 277 287 276 268 314 301 279 288 279 287 264 271 261 259 268 276 332 20 16 9 343 306 297 350 335 338 338 335 338 345 349 352 356 2 3 1 2 2 360 359 353 350 357 1 324 310 316 320 324 311 296 294
193 201 164 286 279 280 278 258 275 263 246 240 244 230 233 252 275 278 342 276 308 338 348 335 313 321 327 339 329 330 330 337 345 351 355 2 6 8 6 2 4 6 4 357 341 313 307 315 323 332 352 360 356 290
208 225 242 258 269 273 211 242 248 238 222 233 245 241 246 242 264 216 132 357 306 309 327 331 340 328 324 323 328 328 330 339 351 351 350 353 359 2 2 4 9 10 10 6 2 356 341 317 304 312 336 354 19 271